Wetbulb
45.42 45.48 48.00 48.44 48.28 47.70 47.56 48.23 49.74 49.79 49.62 49.75 49.60 49.52 49.46 49.04 49.23 49.53 48.80 49.32 49.59 49.41
48.50 48.59 47.60 47.83 47.68 46.98 47.43 47.54 48.71 49.31 48.95 49.01 48.60 48.59 48.44 46.95 46.06 46.72 47.22 48.24 48.65 48.56
48.30 48.33 47.44 46.23 45.26 45.93 47.14 47.91 48.35 47.84 47.74 47.47 47.23 47.53 46.94 46.18 46.22 45.22 46.32 47.18 47.35 47.64
48.29 47.26 47.13 46.45 46.56 47.02 47.34 47.52 47.81 48.24 48.45 47.46 46.80 46.84 46.71 45.96 45.86 45.29 46.13 46.47 45.32 43.60
48.65 47.12 47.10 47.06 47.34 48.01 47.02 47.62 47.17 47.60 47.47 46.36 45.72 46.37 45.55 44.50 44.67 44.34 44.60 44.72 43.68 42.65
48.30 47.68 47.75 47.72 47.77 47.55 46.89 46.76 46.84 46.44 46.01 45.91 46.30 46.32 45.75 44.69 44.12 43.94 43.94 43.29 42.45 41.81
47.78 47.28 47.70 47.87 47.68 47.60 47.44 46.64 46.38 46.30 45.68 45.36 44.91 44.74 44.67 44.35 43.74 42.51 42.44 42.62 41.23 41.09
46.75 47.07 47.12 47.12 47.34 47.68 47.50 46.81 46.62 45.92 45.66 45.36 44.64 44.02 44.20 43.54 43.05 41.97 40.89 40.28 39.45 40.05
43.80 43.63 43.99 43.82 43.56 43.74 44.21 45.62 45.95 45.97 45.50 45.05 44.26 39.89 37.63 38.46 40.67 40.65 39.08 37.99 38.56 38.86
39.38 39.30 40.02 40.47 40.43 40.15 40.61 42.08 41.89 42.05 42.92 43.92 44.81 39.55 37.32 36.49 39.80 39.70 38.64 38.03 37.29 36.74
35.93 35.57 36.35 36.55 36.81 37.80 38.55 38.83 39.13 39.79 41.81 41.27 41.62 39.32 37.18 35.79 39.65 39.54 39.06 37.97 37.07 36.56
34.36 33.95 34.48 34.48 35.18 36.13 36.25 36.58 36.99 36.36 37.29 39.15 39.75 38.54 38.08 36.28 39.43 39.00 38.01 38.05 37.96 36.59
33.85 33.31 33.19 33.70 33.83 34.95 35.64 35.41 36.91 35.89 36.10 35.79 37.09 37.52 37.61 37.00 38.30 37.88 37.42 36.54 36.77 34.55
33.28 32.99 33.19 33.21 33.02 33.18 33.35 33.95 35.15 34.96 36.22 35.50 36.00 36.69 37.18 36.81 36.47 37.15 36.01 34.91 35.27 35.74
MSLP
1021.49 1021.36 1021.06 1021.14 1021.25 1021.21 1021.01 1020.71 1020.36 1020.14 1020.03 1020.02 1019.99 1019.67 1019.73 1019.44 1019.00 1018.70 1018.56 1018.01 1017.55 1017.09
1021.08 1021.10 1021.07 1021.10 1021.07 1020.97 1020.68 1020.32 1020.05 1019.86 1019.65 1019.46 1019.55 1019.51 1019.29 1018.99 1018.81 1018.55 1018.24 1017.81 1017.45 1017.09
1020.63 1020.86 1020.91 1020.90 1020.82 1020.75 1020.32 1020.04 1019.73 1019.49 1019.29 1019.14 1019.03 1018.84 1018.67 1018.39 1018.14 1018.00 1017.70 1017.28 1016.95 1016.77
1020.40 1020.42 1020.45 1020.42 1020.33 1020.07 1019.79 1019.46 1019.18 1018.84 1018.47 1018.34 1018.24 1018.15 1017.92 1017.71 1017.44 1017.18 1016.93 1016.74 1016.73 1016.83
1020.27 1020.01 1019.89 1019.66 1019.48 1019.25 1018.99 1018.70 1018.51 1018.31 1018.03 1017.85 1017.78 1017.54 1017.25 1017.09 1016.88 1016.50 1016.17 1015.92 1015.94 1015.86
1019.36 1019.37 1019.31 1019.23 1019.07 1018.83 1018.54 1018.17 1017.93 1017.73 1017.47 1017.17 1016.90 1016.63 1016.49 1016.38 1016.15 1015.90 1015.63 1015.44 1015.39 1015.21
1019.23 1019.26 1019.01 1018.74 1018.45 1018.13 1017.86 1017.46 1017.09 1016.89 1016.69 1016.52 1016.31 1016.02 1015.79 1015.58 1015.35 1015.22 1015.06 1014.92 1014.97 1014.83
1019.27 1019.05 1018.61 1018.22 1017.88 1017.47 1017.07 1016.74 1016.37 1016.00 1015.76 1015.50 1015.22 1014.86 1014.58 1014.53 1014.41 1014.27 1014.23 1014.33 1014.29 1014.11
1019.93 1019.59 1019.04 1018.58 1018.08 1017.50 1016.86 1016.20 1015.61 1014.95 1014.48 1014.12 1013.81 1013.58 1013.82 1014.08 1014.01 1013.61 1013.45 1013.34 1013.38 1013.30
1020.34 1019.87 1019.38 1018.75 1018.11 1017.50 1016.95 1016.36 1015.84 1015.20 1014.69 1013.66 1012.80 1012.65 1012.79 1013.20 1013.23 1012.88 1012.63 1012.57 1012.56 1012.52
1020.68 1020.07 1019.50 1018.89 1018.21 1017.55 1016.82 1016.06 1015.45 1014.79 1014.06 1013.31 1012.64 1012.38 1011.96 1012.05 1012.18 1011.85 1011.52 1011.58 1011.72 1011.76
1021.18 1020.48 1019.75 1019.00 1018.32 1017.72 1016.90 1016.14 1015.32 1014.54 1013.74 1012.83 1011.82 1011.55 1011.21 1011.18 1010.78 1010.28 1010.36 1010.55 1010.73 1010.90
1021.27 1020.62 1019.78 1019.04 1018.28 1017.43 1016.58 1015.50 1014.58 1013.80 1013.20 1012.35 1011.28 1010.57 1010.18 1010.06 1009.82 1009.24 1009.30 1009.75 1009.90 1010.15
1021.10 1020.41 1019.67 1018.90 1018.30 1017.32 1016.32 1015.30 1014.36 1013.34 1012.33 1011.34 1010.46 1009.53 1009.18 1008.77 1008.76 1008.60 1008.65 1009.07 1009.16 1009.48
Wind_Speed
5 4 5 6 7 7 7 8 8 8 8 9 9 8 9 8 8 8 8 11 10 8
6 7 7 8 8 8 10 9 11 11 10 11 11 11 11 8 10 10 10 11 11 10
5 9 9 7 9 12 12 12 13 12 12 12 12 12 12 11 11 11 10 10 12 11
9 10 10 10 11 12 13 13 14 14 14 13 13 13 12 13 14 14 13 12 12 12
13 12 12 12 13 13 13 13 13 14 14 14 14 15 15 14 14 15 15 14 13 14
13 14 14 14 14 14 13 14 13 14 14 15 15 16 15 16 16 15 15 13 13 13
13 14 13 14 15 15 15 15 15 14 14 15 15 15 15 15 15 15 14 13 13 14
13 14 15 16 16 17 16 16 16 16 16 16 15 12 15 15 14 14 14 14 14 15
13 14 14 15 15 17 17 18 18 19 19 19 14 13 12 13 15 16 15 15 14 14
14 15 15 16 17 17 17 17 16 16 19 21 21 15 15 14 15 16 15 16 14 13
15 16 17 17 18 18 17 18 16 17 21 18 15 22 15 17 17 17 17 16 15 13
15 16 17 17 17 17 17 18 19 17 18 20 19 23 23 18 18 17 17 15 15 12
14 15 17 16 17 16 17 17 15 20 18 21 20 24 24 20 14 16 10 12 14 11
16 17 17 17 17 18 18 18 18 19 18 18 18 19 25 23 14 11 9 8 8 6
Wind_Direction
210 238 262 283 298 286 282 276 273 260 260 259 268 277 277 279 281 279 268 267 264 268
248 262 276 287 287 284 281 277 272 270 268 265 265 267 269 271 271 271 268 268 268 265
273 263 270 275 274 274 276 274 273 267 263 259 263 264 264 269 268 265 267 266 265 270
261 254 261 262 266 269 274 272 271 272 271 272 266 266 267 270 272 269 269 265 263 267
270 256 257 260 260 263 268 273 273 272 270 266 270 271 267 268 269 271 272 270 269 268
262 258 266 278 282 281 275 271 268 266 268 269 269 267 265 269 270 271 270 267 265 274
290 290 292 290 285 280 275 272 269 266 268 271 273 270 268 267 269 270 270 269 271 268
314 307 307 303 297 292 285 278 277 273 268 266 265 263 264 267 270 265 263 267 266 266
341 333 326 320 314 306 301 298 294 284 272 269 265 258 221 242 267 270 268 269 267 269
337 330 326 321 317 312 309 303 294 290 294 288 279 257 215 216 250 262 259 260 267 270
337 332 328 325 321 317 312 307 306 298 292 284 279 281 228 211 242 255 256 255 259 261
337 332 329 325 325 322 319 316 309 303 299 289 275 268 259 221 242 247 251 252 253 253
327 323 322 323 321 315 313 310 312 313 303 288 282 277 264 230 242 249 246 250 252 233
331 326 322 322 320 319 316 314 313 309 311 302 284 278 270 238 231 242 244 240 241 242